Creek Data

    Home     View Charts     View Raw Data     Messages

ID Distance Battery Voltage Battery Current Internal Temp Internal Humidity External Temp Solar Input rssi snr Time Stamp Record
64286 15.0 3.75 0 50 45 49 5.1 -71 8 01/24/2026 10:00 AM 47042
64285 15.0 3.75 0 49 46 49 5.1 -74 7 01/24/2026 09:45 AM 47041
64284 14.9 4.00 0 47 46 48 5.1 -73 8 01/24/2026 09:30 AM 47040
64283 14.9 3.93 0 45 47 47 5.1 -73 8 01/24/2026 09:15 AM 47039
64282 14.9 3.75 0 44 47 46 5.1 -74 8 01/24/2026 09:00 AM 47038
64281 14.8 3.75 0 42 48 44 5.1 -75 8 01/24/2026 08:45 AM 47037
64280 14.8 3.79 0 41 48 44 5.1 -74 8 01/24/2026 08:30 AM 47036
64279 14.8 3.91 31 40 49 42 4.5 -74 8 01/24/2026 08:15 AM 47035
64278 14.8 3.89 50 40 49 42 4.5 -74 8 01/24/2026 08:00 AM 47034
64277 14.8 3.85 -7 39 49 42 4.5 -75 8 01/24/2026 07:45 AM 47033
64276 14.8 3.78 0 39 50 41 4.5 -75 8 01/24/2026 07:30 AM 47032
64275 14.8 3.77 -9 40 50 41 4 -75 8 01/24/2026 07:15 AM 47031
64274 14.8 3.82 -5 40 50 42 0.9 -75 8 01/24/2026 07:00 AM 47030
64273 14.8 3.78 -5 41 50 42 0.1 -74 7 01/24/2026 06:45 AM 47029
64272 14.7 3.82 -5 41 50 42 0 -75 8 01/24/2026 06:30 AM 47028
64271 14.8 3.78 -5 41 50 43 0 -75 8 01/24/2026 06:15 AM 47027
64270 14.7 3.78 -5 42 51 43 0 -73 8 01/24/2026 06:00 AM 47026
64269 14.8 3.83 -5 42 51 43 0 -74 8 01/24/2026 05:45 AM 47025
64268 14.7 3.77 -5 44 50 44 0 -73 8 01/24/2026 05:30 AM 47024
64267 14.7 3.77 -5 44 50 44 0 -74 8 01/24/2026 05:15 AM 47023
64266 14.8 3.77 -5 44 50 44 0 -74 7 01/24/2026 05:00 AM 47022
64265 14.8 3.68 -5 44 50 44 0 -74 8 01/24/2026 04:45 AM 47021
64264 14.8 3.67 -5 44 50 44 0 -74 8 01/24/2026 04:30 AM 47020
64263 14.8 3.62 -34 45 50 45 0 -74 8 01/24/2026 04:15 AM 47019
64262 14.8 3.78 -5 45 50 45 0 -75 8 01/24/2026 04:00 AM 47018